Regional Weather Roundup
Issued by NWS

Home | Current Version | Previous Version | Graphics & Text | Print | Product List | Glossary Off
Versions: 1 2 3 4 5 6 7 8 9 10 11 12 13 14 15 16 17 18 19 20 21 22 23 24 25 26 27 28 29 30 31 32 33 34 35 36 37 38 39 40 41 42 43 44 45 46 47 48 49 50

000
ASUS43 KDMX 280104
RWRIA

WEATHER ROUNDUP FOR IOWA
NATIONAL WEATHER SERVICE DES MOINES IA
  ISSUED BY NWS QUAD CITIES IA IL
700 PM CST FRI FEB 27 2015

NOTE: "FAIR" INDICATES FEW OR NO CLOUDS BELOW 12,000 FEET WITH NO
SIGNIFICANT WEATHER AND/OR OBSTRUCTIONS TO VISIBILITY.

* - THESE STATIONS ARE NOT NWS STATIONS...THUS NOT UNDER NWS
QUALITY CONTROL.  THEY ALSO DO NOT REPORT WEATHER SUCH
AS PRECIPITATION OR FOG.

IAZ001>003-012>014-020>022-031>034-043>046-280200-
   NORTHWEST IOWA

CITY           SKY/WX    TMP DP  RH WIND       PRES   REMARKS
CARROLL *      CLEAR      5  -2  72 SE5       30.53R WCI  -4
CHEROKEE *     CLEAR      4  -4  69 SE6       30.51R WCI  -7
DENNISON *     CLEAR      5  -2  72 SE5       30.50R WCI  -4
LE MARS *      CLEAR      9   0  66 SE9       30.49R WCI  -5
ORANGE CITY *  CLEAR      9  -2  61 SE6       30.46S WCI  -1
SHELDON *      CLEAR      5  -2  72 S7        30.46R WCI  -7
SIOUX CITY     CLEAR     13   4  67 SE8       30.49  WCI   2
SPENCER        CLEAR      1  -6  72 S8        30.49R WCI -13
STORM LAKE *   CLEAR      3  -6  66 S8        30.49R WCI -10
$$

IAZ055>058-069>071-079>083-090>094-280200-
   SOUTHWEST IOWA

CITY           SKY/WX    TMP DP  RH WIND       PRES   REMARKS
ATLANTIC *     CLEAR      9   0  66 CALM      30.53R
CLARINDA *     CLEAR     16   1  53 SE5       30.56R WCI   9
COUNCIL BLFS * CLEAR     12   3  67 SE5       30.50R WCI   4
CRESTON *      CLEAR      9   0  66 SE5       30.54R WCI   0
HARLAN *       CLEAR      9   0  66 SE5       30.56R WCI   0
LAMONI         CLEAR     11  -2  56 E5        30.55R WCI   3
RED OAK *      CLEAR     14   3  62 CALM      30.54R
SHENANDOAH *   CLEAR     16   1  53 SE3       30.55R
$$

IAZ047>049-059>061-072>074-084-280200-
   CENTRAL IOWA

CITY           SKY/WX    TMP DP  RH WIND       PRES   REMARKS
AMES           CLEAR      3  -4  72 E5        30.57R WCI  -6
ANKENY *       PTCLDY     7  -2  66 CALM      30.59R
BOONE *        CLEAR      5  -2  72 S6        30.53R WCI  -6
CHARITON *     CLEAR      9  -2  61 S6        30.57R WCI  -1
DES MOINES     FAIR      11  -3  53 S5        30.58R WCI   3
GRINNELL *     CLEAR      2  -4  76 E3        30.58R
KNOXVILLE *    CLEAR      9  -4  56 E3        30.58R
MARSHALLTOWN   CLEAR     -2  -8  76 E6        30.56S WCI -14
NEWTON *       CLEAR      5  -4  66 E5        30.58R WCI  -4
PELLA *        CLEAR      5   0  78 E3        30.61R
PERRY *          N/A      6   1  81 SE6       30.56R WCI  -5
$$

IAZ004>006-015-016-023>025-035-036-280200-
   NORTH CENTRAL IOWA

CITY           SKY/WX    TMP DP  RH WIND       PRES   REMARKS
ALGONA *       CLEAR      1  -4  78 S9        30.52S WCI -14
CLARION *      CLEAR     -2  -8  78 S8        30.54R WCI -17
ESTHERVILLE    CLEAR      1  -4  79 S8        30.48S WCI -13
FORT DODGE *   CLEAR      7  -2  66 CALM      30.54R
MASON CITY     CLEAR     -3  -7  82 S7        30.54R WCI -16
FOREST CITY *  FAIR      -2  -8  78 S5        30.52R WCI -12
WEBSTER CITY * CLEAR      3  -2  78 S6        30.53R WCI  -8
IOWA FALLS *   FAIR       1  -5  76 SE5       30.56R WCI  -9
$$

IAZ007>011-017>019-026>030-037>042-050>054-066-280200-
   NORTHEAST IOWA

CITY           SKY/WX    TMP DP  RH WIND       PRES   REMARKS
CEDAR RAPIDS   PTCLDY     1  -6  72 N6        30.59S WCI -10
CHARLES CITY * FAIR       1  -6  71 S5        30.56R WCI  -8
CLINTON *      CLEAR      1  -6  71 CALM      30.65R
DECORAH *      CLEAR      1  -8  66 SW3       30.54S
DUBUQUE        CLEAR     -1 -10  65 CALM      30.58R
MONTICELLO *   PTCLDY    -4  -9  77 CALM      30.61R
OELWEIN *      PTCLDY    -2  -9  71 S5        30.58R WCI -12
WATERLOO       PTCLDY     1  -5  75 S5        30.59R WCI  -9
$$

IAZ064-065-067-068-078-280200-
   EAST CENTRAL IOWA

CITY           SKY/WX    TMP DP  RH WIND       PRES   REMARKS
DAVENPORT      CLEAR      0  -9  65 CALM      30.63S
IOWA CITY      PTCLDY     3  -5  69 CALM      30.64R
MT. PLEASANT * CLEAR      0  -7  72 NE5       30.63R WCI -10
MUSCATINE *    CLEAR      0  -8  71 CALM      30.66R
QUAD CITIES    PTCLDY     2  -9  60 CALM      30.64R
$$

IAZ062-063-075>077-085>089-095>099-280200-
   SOUTHEAST IOWA

CITY           SKY/WX    TMP DP  RH WIND       PRES   REMARKS
BURLINGTON     CLEAR      5  -3  69 E3        30.63R
FAIRFIELD *    CLEAR      1  -9  60 E5        30.62R WCI  -8
FORT MADISON * CLEAR      7  -4  61 S3        30.64R
KEOKUK *       FAIR       9   0  66 SE5       30.63R WCI   0
OSKALOOSA *    FAIR       1  -5  74 E6        30.61R WCI -10
CENTERVILLE *  FAIR       9   0  66 CALM      30.59R
OTTUMWA        CLEAR      3  -4  72 SE6       30.60R WCI  -8
WASHINGTON *   FAIR       1  -2  85 E5        30.63R WCI  -8
$$

ABBREVIATIONS USED IN REMARKS
   TC - TEMPERATURES IN CELSIUS
  WCI - WIND CHILL INDEX
   HX - HEAT INDEX
  VSB - VISIBILITY
$$



USA.gov is the U.S. government's official web portal to all federal, state and local government web resources and services.